Year,Month,Day,Hour,Minute,Value (Times are PST for temperature in C)
2008,10,20,04,05,9.90
2008,10,20,11,07,9.90
2008,10,20,11,08,9.80
2008,10,20,11,09,9.80
2008,10,20,11,10,9.80
2008,10,20,11,11,9.80
2008,10,20,11,12,9.80
2008,10,20,11,13,9.80
2008,10,20,11,14,9.90
2008,10,20,11,15,9.90
2008,10,20,11,16,9.90
2008,10,20,11,17,10.00
2008,10,20,11,18,10.00
2008,10,20,11,19,10.10
2008,10,20,11,20,10.10
2008,10,20,11,21,10.20
2008,10,20,11,22,10.30
2008,10,20,11,23,10.40
2008,10,20,11,24,10.40
2008,10,20,11,25,10.50
2008,10,20,11,26,10.50
2008,10,20,11,27,10.60
2008,10,20,11,28,10.60
2008,10,20,11,29,10.70
2008,10,20,11,30,10.80
2008,10,20,11,31,10.80
2008,10,20,11,32,10.80
2008,10,20,11,33,10.80
2008,10,20,11,34,10.90
2008,10,20,11,35,10.90
2008,10,20,11,36,11.00
2008,10,20,11,37,11.10
2008,10,20,11,38,11.10
2008,10,20,11,39,11.10
2008,10,20,11,40,11.10
2008,10,20,11,41,11.10
2008,10,20,11,42,11.10
2008,10,20,11,43,11.10
2008,10,20,11,44,11.10
2008,10,20,11,45,11.10
2008,10,20,11,46,11.20
2008,10,20,11,47,11.20
2008,10,20,11,48,11.30
2008,10,20,11,49,11.40
2008,10,20,11,50,11.50
2008,10,20,11,51,11.50
2008,10,20,11,52,11.50
2008,10,20,11,53,11.50
2008,10,20,11,54,11.40
2008,10,20,11,55,11.40
2008,10,20,11,56,11.40
2008,10,20,11,57,11.40
2008,10,20,11,58,11.50
2008,10,20,11,59,11.50
2008,10,20,12,00,11.60
2008,10,20,12,01,11.60
2008,10,20,12,02,11.60
2008,10,20,12,03,11.60
2008,10,20,12,04,11.70
2008,10,20,12,05,11.70
2008,10,20,12,06,11.80
2008,10,20,12,07,11.80
2008,10,20,12,08,11.80
2008,10,20,12,09,11.80
2008,10,20,12,10,11.80
2008,10,20,12,11,11.80
2008,10,20,12,12,11.80
2008,10,20,12,13,11.80
2008,10,20,12,14,11.80
2008,10,20,12,15,11.80
2008,10,20,12,16,11.80
2008,10,20,12,17,11.80
2008,10,20,12,18,11.80
2008,10,20,12,19,11.80
2008,10,20,12,20,11.80
2008,10,20,12,21,11.80
2008,10,20,12,22,11.90
2008,10,20,12,23,11.90
2008,10,20,12,24,11.90
2008,10,20,12,25,11.90
2008,10,20,12,26,11.90
2008,10,20,12,27,11.90
2008,10,20,12,28,11.90
2008,10,20,12,29,11.90
2008,10,20,12,30,11.90
2008,10,20,12,31,11.90
2008,10,20,12,32,11.90
2008,10,20,12,33,11.90
2008,10,20,12,34,11.90
2008,10,20,12,35,11.80
2008,10,20,12,36,11.70
2008,10,20,12,37,11.70
2008,10,20,12,38,11.70
2008,10,20,12,39,11.70
2008,10,20,12,40,11.70
2008,10,20,12,41,11.70
2008,10,20,12,42,11.70
2008,10,20,12,43,11.70
2008,10,20,12,44,11.80
2008,10,20,12,45,11.80
2008,10,20,12,46,11.90
2008,10,20,12,47,11.90
2008,10,20,12,48,12.00
2008,10,20,12,49,12.00
2008,10,20,12,50,12.00
2008,10,20,12,51,12.00
2008,10,20,12,52,12.00
2008,10,20,12,53,11.90
2008,10,20,12,54,11.90
2008,10,20,12,55,11.90
2008,10,20,12,56,11.90
2008,10,20,12,57,11.80
2008,10,20,12,58,11.70
2008,10,20,12,59,11.70
2008,10,20,13,00,11.60
2008,10,20,13,01,11.60
2008,10,20,13,02,11.50
2008,10,20,13,03,11.50
2008,10,20,13,04,11.40
2008,10,20,13,05,11.40
2008,10,20,13,06,11.30
2008,10,20,13,07,11.30
2008,10,20,13,08,11.30
2008,10,20,13,09,11.30
2008,10,20,13,10,11.30
2008,10,20,13,11,11.40
2008,10,20,13,12,11.40
2008,10,20,13,13,11.40
2008,10,20,13,14,11.40
2008,10,20,13,15,11.40
2008,10,20,13,16,11.40
2008,10,20,13,17,11.40
2008,10,20,13,18,11.50
2008,10,20,13,19,11.50
2008,10,20,13,20,11.50
2008,10,20,13,21,11.50
2008,10,20,13,22,11.50
2008,10,20,13,23,11.50
2008,10,20,13,24,11.40
2008,10,20,13,25,11.40
2008,10,20,13,26,11.40
2008,10,20,13,27,11.30
2008,10,20,13,28,11.30
2008,10,20,13,29,11.30
2008,10,20,13,30,11.30
2008,10,20,13,31,11.40
2008,10,20,13,32,11.40
2008,10,20,13,33,11.40
2008,10,20,13,34,11.40
2008,10,20,13,35,11.40
2008,10,20,13,36,11.50
2008,10,20,13,37,11.50
2008,10,20,13,38,11.50
2008,10,20,13,39,11.50
2008,10,20,13,40,11.50
2008,10,20,13,41,11.50
2008,10,20,13,42,11.50
2008,10,20,13,43,11.40
2008,10,20,13,44,11.40
2008,10,20,13,45,11.30
2008,10,20,13,46,11.30
2008,10,20,13,47,11.30
2008,10,20,13,48,11.20
2008,10,20,13,49,11.20
2008,10,20,13,50,11.20
2008,10,20,13,51,11.20
2008,10,20,13,52,11.20
2008,10,20,13,53,11.20
2008,10,20,13,54,11.30
2008,10,20,13,55,11.30
2008,10,20,13,56,11.30
2008,10,20,13,57,11.30
2008,10,20,13,58,11.30
2008,10,20,13,59,11.30
2008,10,20,14,00,11.30
2008,10,20,14,01,11.30
2008,10,20,14,02,11.30
2008,10,20,14,03,11.40
2008,10,20,14,04,11.30
2008,10,20,14,05,11.30
2008,10,20,14,06,11.30
2008,10,20,14,07,11.30
2008,10,20,14,08,11.30
2008,10,20,14,09,11.20
2008,10,20,14,10,11.10
2008,10,20,14,11,11.00
2008,10,20,14,12,10.90
2008,10,20,14,13,10.90
2008,10,20,14,14,10.80
2008,10,20,14,15,10.80
2008,10,20,14,16,10.70
2008,10,20,14,17,10.70
2008,10,20,14,18,10.70
2008,10,20,14,19,10.70
2008,10,20,14,20,10.80
2008,10,20,14,21,10.80
2008,10,20,14,22,10.80
2008,10,20,14,23,10.80
2008,10,20,14,24,10.90
2008,10,20,14,25,10.90
2008,10,20,14,26,10.80
2008,10,20,14,27,10.80
2008,10,20,14,28,10.80
2008,10,20,14,29,10.80
2008,10,20,14,30,10.80
2008,10,20,14,31,10.80
2008,10,20,14,32,10.80
2008,10,20,14,33,10.80
2008,10,20,14,34,10.80
2008,10,20,14,35,10.80
2008,10,20,14,36,10.80
2008,10,20,14,37,10.80
2008,10,20,14,38,10.80
2008,10,20,14,39,10.90
2008,10,20,14,40,10.90
2008,10,20,14,41,11.00
2008,10,20,14,42,11.00
2008,10,20,14,43,11.00
2008,10,20,14,44,11.00
2008,10,20,14,45,11.00
2008,10,20,14,46,11.00
2008,10,20,14,47,11.10
2008,10,20,14,48,11.10
2008,10,20,14,49,11.10
2008,10,20,14,50,11.20
2008,10,20,14,51,11.20
2008,10,20,14,52,11.20
2008,10,20,14,53,11.20
2008,10,20,14,54,11.20
2008,10,20,14,55,11.20
2008,10,20,14,56,11.20
2008,10,20,14,57,11.20
2008,10,20,14,58,11.20
2008,10,20,14,59,11.20
2008,10,20,15,00,11.20
2008,10,20,15,01,11.20
2008,10,20,15,02,11.20
2008,10,20,15,03,11.20
2008,10,20,15,04,11.20
2008,10,20,15,05,11.20
2008,10,20,15,06,11.20
2008,10,20,15,07,11.20
2008,10,20,15,08,11.20
2008,10,20,15,09,11.20
2008,10,20,15,10,11.30
2008,10,20,15,11,11.30
2008,10,20,15,12,11.30
2008,10,20,15,13,11.40
2008,10,20,15,14,11.40
2008,10,20,15,15,11.40
2008,10,20,15,16,11.40
2008,10,20,15,17,11.40
2008,10,20,15,18,11.40
2008,10,20,15,19,11.40
2008,10,20,15,20,11.30
2008,10,20,15,21,11.30
2008,10,20,15,22,11.30
2008,10,20,15,23,11.20
2008,10,20,15,24,11.20
2008,10,20,15,25,11.20
2008,10,20,15,26,11.10
2008,10,20,15,27,11.10
2008,10,20,15,28,11.10
2008,10,20,15,29,11.00
2008,10,20,15,30,11.00
2008,10,20,15,31,10.90
2008,10,20,15,32,10.80
2008,10,20,15,33,10.80
2008,10,20,15,34,10.70
2008,10,20,15,35,10.60
2008,10,20,15,36,10.60
2008,10,20,15,37,10.50
2008,10,20,15,38,10.40
2008,10,20,15,39,10.30
2008,10,20,15,40,10.20
2008,10,20,15,41,10.00
2008,10,20,15,42,9.90
2008,10,20,15,43,9.80
2008,10,20,15,44,9.60
2008,10,20,15,45,9.50
2008,10,20,15,46,9.40
2008,10,20,15,47,9.30
2008,10,20,15,48,9.30
2008,10,20,15,49,9.20
2008,10,20,15,50,9.10
2008,10,20,15,51,9.00
2008,10,20,15,52,9.00
2008,10,20,15,53,8.90
2008,10,20,15,54,8.80
2008,10,20,15,55,8.80
2008,10,20,15,56,8.80
2008,10,20,15,57,8.70
2008,10,20,15,58,8.70
2008,10,20,15,59,8.70
2008,10,20,16,00,8.70
2008,10,20,16,01,8.70
2008,10,20,16,02,8.70
2008,10,20,16,03,8.70
2008,10,20,16,04,8.70
2008,10,20,16,05,8.70
2008,10,20,16,06,8.70
2008,10,20,16,07,8.70
2008,10,20,16,08,8.70
2008,10,20,16,09,8.70
2008,10,20,16,10,8.70
2008,10,20,16,11,8.60
2008,10,20,16,12,8.60
2008,10,20,16,13,8.60
2008,10,20,16,14,8.60
2008,10,20,16,15,8.60
2008,10,20,16,16,8.60
2008,10,20,16,17,8.60
2008,10,20,16,18,8.60
2008,10,20,16,19,8.60
2008,10,20,16,20,8.60
2008,10,20,16,21,8.60
2008,10,20,16,22,8.60
2008,10,20,16,23,8.60
2008,10,20,16,24,8.60
2008,10,20,16,25,8.60
2008,10,20,16,26,8.60
2008,10,20,16,27,8.60
2008,10,20,16,28,8.70
2008,10,20,16,29,8.70
2008,10,20,16,30,8.70
2008,10,20,16,31,8.70
2008,10,20,16,32,8.70
2008,10,20,16,33,8.80
2008,10,20,16,34,8.80
2008,10,20,16,35,8.90
2008,10,20,16,36,8.90
2008,10,20,16,37,8.90
2008,10,20,16,38,9.00
2008,10,20,16,39,9.10
2008,10,20,16,40,9.10
2008,10,20,16,41,9.10
2008,10,20,16,42,9.20
2008,10,20,16,43,9.30
2008,10,20,16,44,9.40
2008,10,20,16,45,9.40
2008,10,20,16,46,9.50
2008,10,20,16,47,9.50
2008,10,20,16,48,9.50
2008,10,20,16,49,9.40
2008,10,20,16,50,9.40
2008,10,20,16,51,9.40
2008,10,20,16,52,9.40
2008,10,20,16,53,9.30
2008,10,20,16,54,9.30
2008,10,20,16,55,9.30
2008,10,20,16,56,9.20
2008,10,20,16,57,9.20
2008,10,20,16,58,9.20
2008,10,20,16,59,9.20
2008,10,20,17,00,9.20
2008,10,20,17,01,9.10
2008,10,20,17,02,9.10
2008,10,20,17,03,9.10
2008,10,20,17,04,9.10
2008,10,20,17,05,9.00
2008,10,20,17,06,9.00
2008,10,20,17,07,8.90
2008,10,20,17,08,8.90
2008,10,20,17,09,8.80
2008,10,20,17,10,8.80
2008,10,20,17,11,8.80
2008,10,20,17,12,8.80
2008,10,20,17,13,8.80
2008,10,20,17,14,8.70
2008,10,20,17,15,8.70
2008,10,20,17,16,8.70
2008,10,20,17,17,8.70
2008,10,20,17,18,8.60
2008,10,20,17,19,8.60
2008,10,20,17,20,8.60
2008,10,20,17,21,8.50
2008,10,20,17,22,8.40
2008,10,20,17,23,8.40
2008,10,20,17,24,8.40
2008,10,20,17,25,8.40
2008,10,20,17,26,8.50
2008,10,20,17,27,8.50
2008,10,20,17,28,8.60
2008,10,20,17,29,8.60
2008,10,20,17,30,8.60
2008,10,20,17,31,8.60
2008,10,20,17,32,8.60
2008,10,20,17,33,8.50
2008,10,20,17,34,8.50
2008,10,20,17,35,8.50
2008,10,20,17,36,8.50
2008,10,20,17,37,8.50
2008,10,20,17,38,8.50
2008,10,20,17,39,8.50
2008,10,20,17,40,8.50
2008,10,20,17,41,8.50
2008,10,20,17,42,8.40
2008,10,20,17,43,8.40
2008,10,20,17,44,8.40
2008,10,20,17,45,8.40
2008,10,20,17,46,8.40
2008,10,20,17,47,8.40
2008,10,20,17,48,8.50
2008,10,20,17,49,8.50
2008,10,20,17,50,8.50
2008,10,20,17,51,8.50
2008,10,20,17,52,8.40
2008,10,20,17,53,8.40
2008,10,20,17,54,8.40
2008,10,20,17,55,8.40
2008,10,20,17,56,8.40
2008,10,20,17,57,8.40
2008,10,20,17,58,8.30
2008,10,20,17,59,8.30
2008,10,20,18,00,8.30
2008,10,20,18,01,8.30
2008,10,20,18,02,8.30
2008,10,20,18,03,8.30
2008,10,20,18,04,8.20
2008,10,20,18,05,8.20
2008,10,20,18,06,8.20
2008,10,20,18,07,8.20
2008,10,20,18,08,8.20
2008,10,20,18,09,8.20
2008,10,20,18,10,8.20
2008,10,20,18,11,8.10
2008,10,20,18,12,8.10
2008,10,20,18,13,8.10
2008,10,20,18,14,8.10
2008,10,20,18,15,8.10
2008,10,20,18,16,8.20
2008,10,20,18,17,8.20
2008,10,20,18,18,8.20
2008,10,20,18,19,8.20
2008,10,20,18,20,8.20
2008,10,20,18,21,8.20
2008,10,20,18,22,8.20
2008,10,20,18,23,8.20
2008,10,20,18,24,8.20
2008,10,20,18,25,8.20
2008,10,20,18,26,8.20
2008,10,20,18,27,8.20
2008,10,20,18,28,8.20
2008,10,20,18,29,8.20
2008,10,20,18,30,8.20
2008,10,20,18,31,8.20
2008,10,20,18,32,8.20
2008,10,20,18,33,8.20
2008,10,20,18,34,8.20
2008,10,20,18,35,8.20
2008,10,20,18,36,8.20
2008,10,20,18,37,8.20
2008,10,20,18,38,8.20
2008,10,20,18,39,8.30
2008,10,20,18,40,8.30
2008,10,20,18,41,8.30
2008,10,20,18,42,8.30
2008,10,20,18,43,8.30
2008,10,20,18,44,8.30
2008,10,20,18,45,8.30
2008,10,20,18,46,8.30
2008,10,20,18,47,8.30
2008,10,20,18,48,8.30
2008,10,20,18,49,8.40
2008,10,20,18,50,8.40
2008,10,20,18,51,8.40
2008,10,20,18,52,8.40
2008,10,20,18,53,8.40
2008,10,20,18,54,8.40
2008,10,20,18,55,8.40
2008,10,20,18,56,8.40
2008,10,20,18,57,8.40
2008,10,20,18,58,8.50
2008,10,20,18,59,8.50
2008,10,20,19,00,8.50
2008,10,20,19,01,8.50
2008,10,20,19,02,8.60
2008,10,20,19,03,8.60
2008,10,20,19,04,8.70
2008,10,20,19,05,8.70
2008,10,20,19,06,8.80
2008,10,20,19,07,8.80
2008,10,20,19,08,8.80
2008,10,20,19,09,8.80
2008,10,20,19,10,8.80
2008,10,20,19,11,8.80
2008,10,20,19,12,8.90
2008,10,20,19,13,8.90
2008,10,20,19,14,8.90
2008,10,20,19,15,8.90
2008,10,20,19,16,8.90
2008,10,20,19,17,8.90
2008,10,20,19,18,8.90
2008,10,20,19,19,8.90
2008,10,20,19,20,8.90
2008,10,20,19,21,8.90
2008,10,20,19,22,8.90
2008,10,20,19,23,8.90
2008,10,20,19,24,8.90
2008,10,20,19,25,8.90
2008,10,20,19,26,8.90
2008,10,20,19,27,8.90
2008,10,20,19,28,8.90
2008,10,20,19,29,8.90
2008,10,20,19,30,8.90
2008,10,20,19,31,8.90
2008,10,20,19,32,9.00
2008,10,20,19,33,9.00
2008,10,20,19,34,9.00
2008,10,20,19,35,9.00
2008,10,20,19,36,9.10
2008,10,20,19,37,9.10
2008,10,20,19,38,9.10
2008,10,20,19,39,9.10
2008,10,20,19,40,9.10
2008,10,20,19,41,9.10
2008,10,20,19,42,9.10
2008,10,20,19,43,9.10
2008,10,20,19,44,9.10
2008,10,20,19,45,9.10
2008,10,20,19,46,9.10
2008,10,20,19,47,9.10
2008,10,20,19,48,9.10
2008,10,20,19,49,9.20
2008,10,20,19,50,9.20
2008,10,20,19,51,9.20
2008,10,20,19,52,9.20
2008,10,20,19,53,9.20
2008,10,20,19,54,9.20
2008,10,20,19,55,9.20
2008,10,20,19,56,9.20
2008,10,20,19,57,9.20
2008,10,20,19,58,9.20
2008,10,20,19,59,9.10
2008,10,20,20,00,9.10
2008,10,20,20,01,9.10
2008,10,20,20,02,9.10
2008,10,20,20,03,9.10
2008,10,20,20,04,9.10
2008,10,20,20,05,9.00
2008,10,20,20,06,9.00
2008,10,20,20,07,9.00
2008,10,20,20,08,9.00
2008,10,20,20,09,8.90
2008,10,20,20,10,8.90
2008,10,20,20,11,8.90
2008,10,20,20,12,8.90
2008,10,20,20,13,8.90
2008,10,20,20,14,8.90
2008,10,20,20,15,8.90
2008,10,20,20,16,8.90
2008,10,20,20,17,8.90
2008,10,20,20,18,8.90
2008,10,20,20,19,8.90
2008,10,20,20,20,9.00
2008,10,20,20,21,8.90
2008,10,20,20,22,8.90
2008,10,20,20,23,8.90
2008,10,20,20,24,8.90
2008,10,20,20,25,8.90
2008,10,20,20,26,9.00
2008,10,20,20,27,9.00
2008,10,20,20,28,9.00
2008,10,20,20,29,9.00
2008,10,20,20,30,9.00
2008,10,20,20,31,9.00
2008,10,20,20,32,9.00
2008,10,20,20,33,9.00
2008,10,20,20,34,9.00
2008,10,20,20,35,9.00
2008,10,20,20,36,9.00
2008,10,20,20,37,9.00
2008,10,20,20,38,9.00
2008,10,20,20,39,9.00
2008,10,20,20,40,8.90
2008,10,20,20,41,8.90
2008,10,20,20,42,8.90
2008,10,20,20,43,8.90
2008,10,20,20,44,8.90
2008,10,20,20,45,8.90
2008,10,20,20,46,8.90
2008,10,20,20,47,8.90
2008,10,20,20,48,8.90
2008,10,20,20,49,8.90
2008,10,20,20,50,8.90
2008,10,20,20,51,8.90
2008,10,20,20,52,8.90
2008,10,20,20,53,8.90
2008,10,20,20,54,8.90
2008,10,20,20,55,8.90
2008,10,20,20,56,8.90
2008,10,20,20,57,8.90
2008,10,20,20,58,8.90
2008,10,20,20,59,8.90
2008,10,20,21,00,8.90
2008,10,20,21,01,8.90
2008,10,20,21,02,8.90
2008,10,20,21,03,8.90
2008,10,20,21,04,8.90
2008,10,20,21,05,8.90
2008,10,20,21,06,8.90
2008,10,20,21,07,8.90
2008,10,20,21,08,8.80
2008,10,20,21,09,8.80
2008,10,20,21,10,8.80
2008,10,20,21,11,8.80
2008,10,20,21,12,8.80
2008,10,20,21,13,8.80
2008,10,20,21,14,8.80
2008,10,20,21,15,8.80
2008,10,20,21,16,8.80
2008,10,20,21,17,8.80
2008,10,20,21,18,8.80
2008,10,20,21,19,8.90
2008,10,20,21,20,8.90
2008,10,20,21,21,8.90
2008,10,20,21,22,8.90
2008,10,20,21,23,8.90
2008,10,20,21,24,8.90
2008,10,20,21,25,8.90
2008,10,20,21,26,8.90
2008,10,20,21,27,8.90
2008,10,20,21,28,8.80
2008,10,20,21,29,8.80
2008,10,20,21,30,8.80
2008,10,20,21,31,8.80
2008,10,20,21,32,8.80
2008,10,20,21,33,8.80
2008,10,20,21,34,8.80
2008,10,20,21,35,8.90
2008,10,20,21,36,8.90
2008,10,20,21,37,8.90
2008,10,20,21,38,8.90
2008,10,20,21,39,8.90
2008,10,20,21,40,8.90
2008,10,20,21,41,8.90
2008,10,20,21,42,8.90
2008,10,20,21,43,8.90
2008,10,20,21,44,8.90
2008,10,20,21,45,8.90
2008,10,20,21,46,8.90
2008,10,20,21,47,8.90
2008,10,20,21,48,8.80
2008,10,20,21,49,8.80
2008,10,20,21,50,8.80
2008,10,20,21,51,8.80
2008,10,20,21,52,8.80
2008,10,20,21,53,8.80
2008,10,20,21,54,8.90
2008,10,20,21,55,8.80
2008,10,20,21,56,8.80
2008,10,20,21,57,8.80
2008,10,20,21,58,8.80
2008,10,20,21,59,8.80
2008,10,20,22,00,8.80
2008,10,20,22,01,8.80
2008,10,20,22,02,8.70
2008,10,20,22,03,8.70
2008,10,20,22,04,8.70
2008,10,20,22,05,8.70
2008,10,20,22,06,8.70
2008,10,20,22,07,8.70
2008,10,20,22,08,8.70
2008,10,20,22,09,8.70
2008,10,20,22,10,8.60
2008,10,20,22,11,8.60
2008,10,20,22,12,8.60
2008,10,20,22,13,8.60
2008,10,20,22,14,8.60
2008,10,20,22,15,8.60
2008,10,20,22,16,8.60
2008,10,20,22,17,8.60
2008,10,20,22,18,8.60
2008,10,20,22,19,8.60
2008,10,20,22,20,8.60
2008,10,20,22,21,8.60
2008,10,20,22,22,8.60
2008,10,20,22,23,8.60
2008,10,20,22,24,8.60
2008,10,20,22,25,8.70
2008,10,20,22,26,8.70
2008,10,20,22,27,8.70
2008,10,20,22,28,8.70
2008,10,20,22,29,8.70
2008,10,20,22,30,8.70
2008,10,20,22,31,8.70
2008,10,20,22,32,8.70
2008,10,20,22,33,8.70
2008,10,20,22,34,8.70
2008,10,20,22,35,8.70
2008,10,20,22,36,8.70
2008,10,20,22,37,8.70
2008,10,20,22,38,8.70
2008,10,20,22,39,8.70
2008,10,20,22,40,8.70
2008,10,20,22,41,8.70
2008,10,20,22,42,8.70
2008,10,20,22,43,8.70
2008,10,20,22,44,8.70
2008,10,20,22,45,8.70
2008,10,20,22,46,8.70
2008,10,20,22,47,8.70
2008,10,20,22,48,8.70
2008,10,20,22,49,8.70
2008,10,20,22,50,8.70
2008,10,20,22,51,8.70
2008,10,20,22,52,8.70
2008,10,20,22,53,8.70
2008,10,20,22,54,8.70
2008,10,20,22,55,8.70
2008,10,20,22,56,8.70
2008,10,20,22,57,8.70
2008,10,20,22,58,8.70
2008,10,20,22,59,8.70
2008,10,20,23,00,8.70
2008,10,20,23,01,8.70
2008,10,20,23,02,8.70
2008,10,20,23,03,8.70
2008,10,20,23,04,8.70
2008,10,20,23,05,8.70
2008,10,20,23,06,8.60
2008,10,20,23,07,8.60
2008,10,20,23,08,8.60
2008,10,20,23,09,8.60
2008,10,20,23,10,8.60
2008,10,20,23,11,8.60
2008,10,20,23,12,8.60
2008,10,20,23,13,8.60
2008,10,20,23,14,8.60
2008,10,20,23,15,8.50
2008,10,20,23,16,8.50
2008,10,20,23,17,8.40
2008,10,20,23,18,8.40
2008,10,20,23,19,8.40
2008,10,20,23,20,8.40
2008,10,20,23,21,8.40
2008,10,20,23,22,8.30
2008,10,20,23,23,8.30
2008,10,20,23,24,8.30
2008,10,20,23,25,8.30
2008,10,20,23,26,8.40
2008,10,20,23,27,8.40
2008,10,20,23,28,8.40
2008,10,20,23,29,8.40
2008,10,20,23,30,8.40
2008,10,20,23,31,8.40
2008,10,20,23,32,8.40
2008,10,20,23,33,8.40
2008,10,20,23,34,8.40
2008,10,20,23,35,8.40
2008,10,20,23,36,8.40
2008,10,20,23,37,8.40
2008,10,20,23,38,8.40
2008,10,20,23,39,8.40
2008,10,20,23,40,8.30
2008,10,20,23,41,8.30
2008,10,20,23,42,8.20
2008,10,20,23,43,8.20
2008,10,20,23,44,8.20
2008,10,20,23,45,8.20
2008,10,20,23,46,8.20
2008,10,20,23,47,8.20
2008,10,20,23,48,8.10
2008,10,20,23,49,8.20
2008,10,20,23,50,8.20
2008,10,20,23,51,8.20
2008,10,20,23,52,8.20
2008,10,20,23,53,8.20
2008,10,20,23,54,8.20
2008,10,20,23,55,8.20
2008,10,20,23,56,8.20
2008,10,20,23,57,8.20
2008,10,20,23,58,8.20
2008,10,20,23,59,8.20
